Powrót do katalogu

EUTE 5 WEST A

STELLAT5

AktywnyŁącznośćGEO
NORAD 27460·PAYLOAD·🇪🇺 EU

Wystrzelony Jul 5, 2002 z Guiana Space Centre

Loading…

TLE

ŚwieżeSource: Space-Track

Epoka: Sep 14, 2026, 14:08 UTC

1 27460U 02035A   26257.58940108  .00000017  00000-0  00000+0 0  9993
2 27460   6.3073  71.4559 0010002  50.4438 155.8843  0.98353089 88250

Śledź EUTE 5 WEST A w czasie rzeczywistym z AllMySat

Download on the App Store